San Antonio Del Tachira Airport

Jump to: basic info | weather | frequencies | runways | comments

Related pages: nearby airports | nearby navaids | notams | map

Basic information (top)

Codes: SVZ SVSA
Location: lon 7.840830, lat -72.439697, elev 1,312 ft / 400 m msl
Status: medium_airport

Weather (top)

Current conditions (rec'd 2014/07/23 02:00Z):

SVSA 230200Z /////KT 9999 FEW020 28/18 Q1013

Airport forecast (rec'd 2014/06/30 18:15Z):

TAF TAF SVSA 301600Z 3018/0118 16008KT 9999 FEW020 TX31/19Z TN24/09Z 
      TEMPO 3018/3023 14015KT 7000 TSDZ BKN017 CB

Frequencies (top)

Verify before use: may be inaccurate or out of date.

GND: 121.9 MHz (GND)
TWR: 118.5 MHz (TWR)

Runways (top)

17/35: 6,135 x 131 ft (1,870 x 40 m) — paved — lighted

Latest comments (top)

No comments yet for San Antonio Del Tachira Airport

More... (top)

See also NOTAMs and nearby airports and navaids, or visit the San Antonio Del Tachira Airport page at the main OurAirports website..